Regional Weather Roundup
Issued by NWS Kansas City/Pleasant Hill, MO

Home | Current Version | Previous Version | Text Only | Print | Product List | Glossary On
Versions: 1 2 3 4 5 6 7 8 9 10 11 12 13 14 15 16 17 18 19 20 21 22 23 24 25 26 27
000
ASUS43 KEAX 231410
RWREAX

WEATHER ROUNDUP FOR EASTERN KANSAS AND NORTHWEST MISSOURI
NATIONAL WEATHER SERVICE KANSAS CITY/PLEASANT HILL MO
900 AM CDT THU MAR 23 2017

KSZ040-057-103>105-MOZ028-029-037-043-231500-
...KANSAS CITY METROPOLITAN AREA...

CITY           SKY/WX    TMP DP  RH WIND       PRES   REMARKS
K.C. INTL      PTSUNNY   53  33  46 SE17      30.05F
K.C. DOWNTOWN  PTSUNNY   55  33  43 SE9       30.06F
LEES SUMMIT    CLOUDY    53  33  46 S13       30.08F
OLATHE - IXD   CLOUDY    53  35  50 SE17      30.05F
OLATHE - OJC   CLOUDY    51  36  56 SE15      30.06S
LAWRENCE       CLOUDY    54  36  50 SE14      30.04F

$$

MOZ001>008-011>017-020>025-030>033-038>040-044>046-053-054-231500-
...NORTHERN AND CENTRAL MISSOURI...

CITY           SKY/WX    TMP DP  RH WIND       PRES   REMARKS
ST. JOSEPH     CLOUDY    51  32  48 SE13      30.05F
MOSBY          PTSUNNY   52  30  43 SE9       30.08F
WARRENSBURG    MOSUNNY   52  30  43 SE15      30.10F
WHITEMAN AFB   PTSUNNY   53  29  39 S10G20    30.10F
CLINTON        CLOUDY    54  32  43 S14       30.11F
SEDALIA        CLOUDY    52  28  39 SE12      30.14F
WARSAW         NOT AVBL
CHILLICOTHE      N/A     45  33  63 SE13G18   30.13F
KIRKSVILLE     CLOUDY    39  33  79 SE17      30.18F WCI  30

$$

MOZ041-047>049-056>058-063>065-088>090-097-231500-
...EASTERN AND SOUTHERN MISSOURI...

CITY           SKY/WX    TMP DP  RH WIND       PRES   REMARKS
ST. LOUIS INTL CLOUDY    39  32  76 E14       30.30S WCI  31
SPIRIT OF STL  CLOUDY    39  34  82 E8        30.29S WCI  33
COLUMBIA       CLOUDY    43  32  65 SE13      30.18S
JEFFERSON CITY CLOUDY    48  30  49 E12       30.20S
ROLLA          CLOUDY    47  23  38 SE12      30.20R
OSAGE BEACH    CLOUDY   N/A N/A N/A SE9       30.18F
SPRINGFIELD    MOSUNNY   51  29  42 S24G32    30.13S
BRANSON        PTSUNNY   46  30  53 SE9       30.20S
JOPLIN         PTSUNNY   54  38  54 SE18G25   30.09S
WEST PLAINS    PTSUNNY   49  26  41 SE13      30.25R

$$

IAZ060-094-KSZ022-034>040-054-083-096-NEZ052-066-093-231500-
...KANSAS...SOUTHEAST NEBRASKA AND IOWA...

CITY           SKY/WX    TMP DP  RH WIND       PRES   REMARKS
TOPEKA         PTSUNNY   55  40  56 SE18G24   30.01F
MANHATTAN      CLOUDY    55  46  71 VRB5      29.96F
EMPORIA        SUNNY     56  47  71 S21G30    29.99S
CHANUTE        SUNNY     58  44  60 S16G24    30.05S
WICHITA        PTSUNNY   56  49  77 S24G31    29.93F
OMAHA          CLOUDY    48  30  49 SE20      29.99S
LINCOLN        CLOUDY    51  41  68 S20G28    29.94F
FALLS CITY     CLOUDY    51  32  48 SE15G25   30.01F
LAMONI         CLOUDY    43  30  60 SE20      30.08F WCI  34
DES MOINES     CLOUDY    43  25  49 SE17      30.12F

$$





USA.gov is the U.S. government's official web portal to all federal, state and local government web resources and services.